GLOBALSTAR M088

Last updated on Sat Sep 05 2026 00:03:16 GMT+0000 (Coordinated Universal Time)

1 37740U 11033B 26247.44659955 -.00000109 00000+0 -27103-4 0 9995 2 37740 52.0225 37.7638 0000745 91.0347 303.2771 12.62270158698508
UTC large
Height (km)
Speed (km/s)
/
Latitude / Longitude
Inclination (degrees)
Orbital Period (minutes)
Azimuth
Elevation
Range (km)
Doppler Factor

Next 0 passes for location: London (51.5072 / 0.1276)

No passes found over London.
GLOBALSTAR M088